This is the latest recevied weather packets stored in our database for station/object OK2ZAW-23. If no packets are shown the sender has not sent any weather packets the latest 10 day(s).
| Time | Temp. | Humidity | Pressure | Rain* | Wind** | Luminosity | Snow |
|---|---|---|---|---|---|---|---|
| 1777525519 | -1.67° C | 68% | 1027.6 hPa | - | - | 335 W/m² | - |
| 1777524582 | -2.22° C | 72% | 1027.6 hPa | - | - | 335 W/m² | - |
| 1777524269 | -2.78° C | 71% | 1027.5 hPa | - | - | 335 W/m² | - |
| 1777523956 | -2.78° C | 70% | 1027.4 hPa | - | - | 335 W/m² | - |
| 1777523645 | -2.78° C | 69% | 1027.4 hPa | - | - | 335 W/m² | - |
| 1777522394 | -3.33° C | 66% | 1027.2 hPa | - | - | 335 W/m² | - |
| 1777522081 | -3.33° C | 68% | 1027.3 hPa | - | - | 335 W/m² | - |
| 1777521456 | -3.33° C | 69% | 1027.2 hPa | - | - | 335 W/m² | - |
| 1777521144 | -3.33° C | 67% | 1027.1 hPa | - | - | 335 W/m² | - |
| 1777520831 | -3.33° C | 64% | 1027 hPa | - | - | 335 W/m² | - |
| 1777520206 | -3.33° C | 62% | 1027 hPa | - | - | 334 W/m² | - |
| 1777518957 | -3.33° C | 62% | 1026.8 hPa | - | - | 335 W/m² | - |
| 1777518644 | -3.33° C | 62% | 1026.9 hPa | - | - | 335 W/m² | - |
| 1777518331 | -3.33° C | 62% | 1027 hPa | - | - | 335 W/m² | - |
| 1777517706 | -3.33° C | 62% | 1026.8 hPa | - | - | 335 W/m² | - |
| 1777517394 | -2.78° C | 62% | 1026.8 hPa | - | - | 335 W/m² | - |
| 1777516456 | -2.78° C | 62% | 1026.8 hPa | - | - | 335 W/m² | - |
| 1777515831 | -2.22° C | 64% | 1026.8 hPa | - | - | 335 W/m² | - |
| 1777515518 | -2.22° C | 65% | 1026.8 hPa | - | - | 335 W/m² | - |
| 1777515206 | -2.22° C | 68% | 1026.8 hPa | - | - | 335 W/m² | - |
| 1777514893 | -2.22° C | 69% | 1026.8 hPa | - | - | 335 W/m² | - |
| 1777514268 | -2.22° C | 68% | 1026.9 hPa | - | - | 335 W/m² | - |
| 1777513956 | -2.22° C | 66% | 1026.9 hPa | - | - | 335 W/m² | - |
| 1777511456 | -1.67° C | 56% | 1026.8 hPa | - | - | 335 W/m² | - |
| 1777511144 | -1.67° C | 57% | 1026.8 hPa | - | - | 335 W/m² | - |
* Rain since midnight (hover to see other rain measurements)
** Current wind speed in m/s (hover to see current wind gust speed)